Simultaneous Nadir Overpasses (SNOs) Predictions

Prediction of SNOs between GOES-16 and TERRA Satellite Orbit:

Table of predicted SNOs for the next 14.0 days since TLE Epoch: 5/30/2025
Index Date Time (GOES-16) GOES-16 Lat,Lon TERRA Lat,Lon Distance(km) Time Diff (sec)
1 05/31/2025 03:56:40 -0.04,-101.40 0.53, -98.78 298.06 80
2 05/31/2025 16:18:48 0.04,-101.70 0.43,-103.52 207.63 80
3 06/02/2025 15:57:05 0.04,-102.75 -0.77, -98.97 430.16 80
4 06/03/2025 04:19:22 -0.04,-103.00 -0.22,-103.74 85.78 80
5 06/05/2025 16:17:08 0.03,-104.36 -0.04,-103.94 47.32 80
6 06/06/2025 04:39:26 -0.03,-104.60 -0.88,-108.73 468.46 80
7 06/08/2025 04:17:42 -0.03,-105.66 0.30,-104.16 170.11 80
8 06/08/2025 16:39:51 0.03,-105.96 0.66,-108.91 335.43 80
9 06/10/2025 16:18:07 0.02,-107.01 -0.54,-104.35 302.71 80
10 06/11/2025 04:40:23 -0.02,-107.26 -0.42,-109.13 213.07 80
11 06/13/2025 04:18:40 -0.01,-108.31 0.80,-104.57 424.82 80
12 06/13/2025 16:40:48 0.00,-108.61 0.17,-109.32 80.94 80
